Regional Weather Roundup
Issued by NWS

Home | Current Version | Previous Version | Text Only | Print | Product List | Glossary Off
Versions: 1 2 3 4 5 6 7 8 9 10 11 12 13 14 15 16 17 18 19 20 21 22 23 24 25 26 27 28 29 30 31 32 33 34 35 36 37 38 39 40 41 42 43 44 45 46 47 48 49 50

000
ASUS43 KLOT 211203
RWRIL

ILLINOIS REGIONAL WEATHER ROUNDUP
NATIONAL WEATHER SERVICE CHICAGO/ROMEOVILLE IL
600 AM CST SAT JAN 21 2017

NOTE: "FAIR" INDICATES FEW OR NO CLOUDS BELOW 12,000 FEET WITH NO
SIGNIFICANT WEATHER AND/OR OBSTRUCTIONS TO VISIBILITY.

* THESE STATIONS ARE NOT UNDER NWS QUALITY CONTROL. THEY ALSO MAY NOT
  REPORT WEATHER SUCH AS PRECIPITATION OR FOG.

ILZ001-002-007-009-015-016-024-211300-
NORTHWEST ILLINOIS

CITY           SKY/WX    TMP DP  RH WIND       PRES   REMARKS
MOLINE         CLEAR     47  44  90 S8        29.42F
6HR MIN TEMP:  41; 6HR MAX TEMP:  48; 6HR PCP:  0.05;

STERLING*      FOG       41  41 100 E5        29.47F VSB 1/4
SAVANNA*       CLOUDY    45  45 100 SE6       29.45S FOG
$$

ILZ003-004-008-010-011-017-018-211300-
NORTH CENTRAL ILLINOIS

CITY           SKY/WX    TMP DP  RH WIND       PRES   REMARKS
ROCKFORD       FOG       46  45  96 SE7       29.50S VSB 1
6HR MIN TEMP:  42; 6HR MAX TEMP:  46; 6HR PCP:  0.03;

FREEPORT*      FOG       39  39 100 SE8       29.47F VSB 1/4 WCI  34
ROCHELLE*      FOG       43  43 100 SE8       29.49S VSB 1/4
DE KALB*       SNOW      46  45  99 SE10      29.51F VSB 1/4
$$

ILZ005-006-012>014-019>023-211300-
NORTHEAST ILLINOIS

CITY           SKY/WX    TMP DP  RH WIND       PRES   REMARKS
CHICAGO-OHARE  CLOUDY    47  47 100 SE7       29.53S FOG
6HR MIN TEMP:  42; 6HR MAX TEMP:  48; 6HR PCP: TRACE;

CHICAGO-MIDWAY CLOUDY    48  46  93 SE7       29.54F FOG
6HR MIN TEMP:  46; 6HR MAX TEMP:  48; 6HR PCP: TRACE;

AURORA         FOG       47  46  97 SE9       29.51F VSB 1/4
6HR MIN TEMP:  43; 6HR MAX TEMP:  48;

LANSING*       CLOUDY    48  48 100 S9        29.56S
JOLIET*        PTCLDY    47  47 100 S3        29.53F FOG
WAUKEGAN       FOG       40  40 100 SE5       29.53S VSB 1/4
6HR MIN TEMP:  38; 6HR MAX TEMP:  41; 6HR PCP:  0.01;

DUPAGE AIRPORT CLOUDY    49  47  93 S10       29.52S FOG
6HR MIN TEMP:  46; 6HR MAX TEMP:  49; 6HR PCP: TRACE;

WHEELING       CLOUDY    47  46  97 SE6       29.54F FOG
6HR MIN TEMP:  38; 6HR MAX TEMP:  47; 6HR PCP: TRACE;

MORRIS*        FOG       44  44  98 S8        29.51S VSB 1/4
NORTHERLY ISL    N/A     39  39 100 NE3         N/A
$$

LMZ740>746-211300-
SOUTHERN LAKE MICHIGAN

STATION/POSITION SKY/WX   TEMP    WIND        PRES    VSBY  WAVE
                          AIR SEA DIR/SP/G                  HT/PER
                          (F)     (DEG/KT/KT) (MB)    (MI)  (FT/S)
HARRISON CRIB              44     160/ 12/ 13   N/A
BURNHAM HARBOR             40      60/  3/  4   N/A
CALUMET HARBOR             49     150/  8/ 13 1000.2F
BURNS HARBOR               51     160/ 10/ 17 1002.0S
$$

ILZ025>027-034>036-040-047-049-050-058-095>099-211300-
WEST-CENTRAL ILLINOIS

CITY           SKY/WX    TMP DP  RH WIND       PRES   REMARKS
QUINCY         CLEAR     49  42  77 S12       29.44F
GALESBURG*     CLEAR     43  43 100 SE7       29.45S FOG
MACOMB*        CLEAR     44  44 100 S10       29.47F
JACKSONVILLE*  CLEAR     49  45  87 S10       29.50R
PITTSFIELD*    CLEAR     47  44  87 S7        29.48F
$$

ILZ028>032-037-038-041>044-048-051>054-059>061-211300-
CENTRAL ILLINOIS

CITY           SKY/WX    TMP DP  RH WIND       PRES   REMARKS
BLOOMINGTON    CLEAR     45  44  97 S12       29.53S
DECATUR        CLEAR     48  48 100 S13       29.55R
PEORIA         CLEAR     47  46  97 S10       29.48F
6HR MIN TEMP:  45; 6HR MAX TEMP:  51;

LACON*         CLEAR     45  45 100 S8        29.48F
LINCOLN*       CLEAR     49  48  95 S10       29.52S
SPRINGFIELD    CLEAR     51  47  86 S15       29.52S
6HR MIN TEMP:  51; 6HR MAX TEMP:  54;

TAYLORVILLE    CLEAR     50  47  89 S10G17    29.54S
6HR MIN TEMP:  49; 6HR MAX TEMP:  51;

$$

ILZ033-039-045-046-055>057-062-063-211300-
EAST-CENTRAL ILLINOIS

CITY           SKY/WX    TMP DP  RH WIND       PRES   REMARKS
CHAMPAIGN      CLEAR     47  45  93 S13       29.56F
MATTOON        CLEAR     49  47  93 S8        29.58S
PARIS*         CLEAR     47  47  99 SE5       29.61S FOG
$$

ILZ079-100>102-211300-
SOUTHWEST ILLINOIS

CITY           SKY/WX    TMP DP  RH WIND       PRES   REMARKS
ALTON          CLEAR     51  46  82 S10       29.54S
BELLEVILLE     CLEAR     50  49  99 CALM      29.55S
CAHOKIA*       CLEAR     51  45  79 S8        29.54R
SPARTA*        PTCLDY    53  48  84 S12       29.59S
$$

ILZ064>066-069>071-074>076-080>082-084>086-088>090-092>094-211300-
SOUTH-CENTRAL ILLINOIS

CITY           SKY/WX    TMP DP  RH WIND       PRES   REMARKS
CARBONDALE     MOCLDY    49  49 100 SE3       29.60F
6HR MIN TEMP:  45; 6HR MAX TEMP:  54;

CAIRO*         CLOUDY    55  52  88 S7        29.62F
EFFINGHAM*     CLEAR     49  49 100 SE6       29.61R
MARION         MOCLDY    52  52 100 S3        29.63S
MT. VERNON     MOCLDY    49  48  97 S3        29.61S
CENTRALIA*     PTCLDY    52  50  91 S12       29.58F
SALEM*         PTCLDY    55  48  76 S9        29.59S
$$

ILZ067-068-072-073-078-083-087-091-211300-
SOUTHEAST ILLINOIS

CITY           SKY/WX    TMP DP  RH WIND       PRES   REMARKS
LAWRENCEVILLE  PTCLDY    49  49 100 S10       29.64S
FLORA*         PTCLDY    50  48  94 S7        29.61F
FAIRFIELD*     MOCLDY    51  49  95 S5        29.61F
HARRISBURG*    CLOUDY    50  49  97 SE5       29.63F
ROBINSON*      CLEAR     47  47  99 S7        29.63F
CARMI*         PTCLDY    49  49 100 SE8       29.63F
$$

ABBREVIATIONS USED IN REMARKS
   TC - TEMPERATURE IN CELSIUS
  WCI - WIND CHILL INDEX
   HX - HEAT INDEX
  VSB - VISIBILITY
$$





USA.gov is the U.S. government's official web portal to all federal, state and local government web resources and services.